This demonstration page uses our WeatherBlox Daily Observations layout. Learn more.

Left ArrowRight Arrow

39.01783, -85.05884

Hourly Observations for May 20, 2018

Temp ( °F °C ) Dew Point ( °F °C ) Humidity (%) Winds ( mph kmh ) Pressure ( in mb ) Visibility ( mi km ) Precip ( " mm )
12:52 am 00:52 Partly Cloudy 68 20 65 18.3 90 90 SSW 3 6 29.97 1015 7 11 0.00 0.00
1:52 am 01:52 Mostly Cloudy with Mist and Fog 68 20 65 18.3 90 90 Calm 29.97 1015 6 10 0.00 0.00
2:52 am 02:52 Partly Cloudy 66 18.9 64 17.8 93 93 SSW 3 6 29.98 1015 7 11 0.00 0.00
3:52 am 03:52 Mostly Cloudy 68 20 64 17.8 87 87 SW 5 7 30.00 1016 8 13 0.00 0.00
4:52 am 04:52 Mostly Cloudy with Mist and Fog 66 18.9 64 17.8 93 93 SSW 5 7 30.01 1016 6 10 0.00 0.00
5:52 am 05:52 Mostly Cloudy with Mist and Fog 65 18.3 63 17.2 93 93 SSW 6 9 30.01 1016 5 8 0.00 0.00
6:52 am 06:52 Mostly Cloudy 64 17.8 63 17.2 96 96 S 3 6 30.03 1017 10 16 0.00 0.00
7:52 am 07:52 Mostly Cloudy 68 20 65 18.3 90 90 SW 5 7 30.05 1018 10 16 0.00 0.00
8:52 am 08:52 Mostly Cloudy 72 22.2 66 18.9 82 82 SW 6 9 30.05 1018 10 16 0.00 0.00
9:52 am 09:52 Partly Cloudy 75 23.9 66 18.9 74 74 W 5 7 30.07 1018 10 16 0.00 0.00
10:52 am 10:52 Mostly Cloudy 77 25 66 18.9 69 69 W 5 7 30.07 1018 10 16 0.00 0.00
11:52 am 11:52 Mostly Cloudy 80 26.7 65 18.3 60 60 W 5 7 30.09 1019 10 16 0.00 0.00
12:52 pm 12:52 Partly Cloudy 80 26.7 64 17.8 58 58 Calm 30.09 1019 10 16 0.00 0.00
1:52 pm 13:52 Partly Cloudy 84 28.9 65 18.3 53 53 VRB 5 7 30.08 1019 10 16 0.00 0.00
2:52 pm 14:52 Partly Cloudy 83 28.3 62 16.7 49 49 VRB 5 7 30.07 1018 10 16 0.00 0.00
3:52 pm 15:52 Partly Cloudy 85 29.4 63 17.2 48 48 VRB 7 11 30.06 1018 10 16 0.00 0.00
4:52 pm 16:52 Partly Cloudy 86 30 62 16.7 45 45 Calm 30.04 1017 10 16 0.00 0.00
5:52 pm 17:52 Partly Cloudy 85 29.4 62 16.7 46 46 WSW 6 9 30.02 1017 10 16 0.00 0.00
6:52 pm 18:52 Mostly Cloudy with Nearby Thunderstorms 84 28.9 62 16.7 48 48 WSW 5 7 30.04 1017 10 16 0.00 0.00
7:08 pm 19:08 Mostly Cloudy with Thunderstorms 84 28.9 61 16.1 46 46 N 12 19 30.00 1016 10 16 0.00 0.00
7:16 pm 19:16 Windy with Storms Likely 75 23.9 63 17.2 66 66 NNE 23 37 30.06 1018 8 13 0.00 0.03
7:24 pm 19:24 Mostly Cloudy with Nearby Thunderstorms 73 22.8 63 17.2 71 71 ENE 16 26 30.06 1018 10 16 0.00 0.03
7:26 pm 19:26 Mostly Cloudy with Thunderstorms 75 23.9 62 16.7 64 64 NE 13 20 30.06 1018 10 16 0.00 0.03
7:36 pm 19:36 Mostly Cloudy with Nearby Thunderstorms 75 23.9 63 17.2 66 66 E 8 13 30.03 1017 10 16 0.00 0.03
7:52 pm 19:52 Mostly Cloudy with Nearby Thunderstorms 75 23.9 65 18.3 71 71 Calm 30.04 1017 10 16 0.00 0.03
8:09 pm 20:09 Partly Cloudy 75 23.9 63 17.2 66 66 NE 7 11 30.06 1018 10 16 0.00 0.03
8:52 pm 20:52 Mostly Cloudy 73 22.8 64 17.8 74 74 ESE 8 13 30.06 1018 10 16 0.00 0.03
9:52 pm 21:52 Partly Cloudy 72 22.2 64 17.8 76 76 E 6 9 30.06 1018 10 16 0.00 0.00
10:52 pm 22:52 Mostly Cloudy 70 21.1 64 17.8 82 82 ESE 5 7 30.08 1019 10 16 0.00 0.00
11:52 pm 23:52 Partly Cloudy 68 20 63 17.2 84 84 SSE 5 7 30.07 1018 10 16 0.00 0.00

Powered by AerisWeather